FW7079 Weather Reports


Display with metric or nautical units.
time (UTC)temp
F
wind
direction
speed
MPH
gust
MPH
rain 1hr
in
rain 24hr
in
rain mn
in
humidity
%
barometer
mb
20260905143107 86 136 2.0 7.0 0.00 0.00 0.00 63 1015.4
20260905141606 85 142 1.0 4.0 0.00 0.00 0.00 65 1015.5
20260905140105 83 207 0.0 2.0 0.00 0.00 0.00 70 1015.4
20260905134607 81 132 0.0 2.0 0.00 0.00 0.00 71 1015.3
20260905133106 79 131 0.0 2.0 0.00 0.00 0.00 77 1015.3
20260905131613 75 0 0.0 0.0 0.00 0.00 0.00 82 1015.3
20260905130101 73 0 0.0 0.0 0.00 0.00 0.00 86 1015.2
20260905124605 72 0 0.0 0.0 0.00 0.00 0.00 85 1015.0
20260905123109 72 0 0.0 0.0 0.00 0.00 0.00 85 1014.9
20260905121601 72 0 0.0 0.0 0.00 0.00 0.00 85 1014.8
20260905120100 72 0 0.0 0.0 0.00 0.00 0.00 85 1014.6
20260905114603 73 0 0.0 0.0 0.00 0.00 0.00 84 1014.5
20260905113101 73 0 0.0 0.0 0.00 0.00 0.00 84 1014.3
20260905111600 73 0 0.0 0.0 0.00 0.00 0.00 82 1014.4
20260905110058 74 0 0.0 0.0 0.00 0.00 0.00 82 1014.4
20260905104557 74 0 0.0 0.0 0.00 0.00 0.00 81 1014.4
20260905103104 75 0 0.0 0.0 0.00 0.00 0.00 81 1014.4
20260905101608 75 0 0.0 0.0 0.00 0.00 0.00 79 1014.3
20260905100121 76 0 0.0 0.0 0.00 0.00 0.00 79 1014.3
20260905094556 76 0 0.0 0.0 0.00 0.00 0.00 78 1014.4
20260905093101 76 0 0.0 0.0 0.00 0.00 0.00 77 1014.4
20260905091604 77 0 0.0 0.0 0.00 0.00 0.00 77 1014.4
20260905090058 78 0 0.0 0.0 0.00 0.00 0.00 75 1014.3
20260905084600 78 0 0.0 0.0 0.00 0.00 0.00 75 1014.2
20260905083112 79 0 0.0 0.0 0.00 0.00 0.00 73 1014.1
20260905081605 79 0 0.0 0.0 0.00 0.00 0.00 73 1014.1
20260905080101 79 0 0.0 1.0 0.00 0.00 0.00 72 1013.9
20260905074556 79 0 0.0 0.0 0.00 0.00 0.00 73 1013.9
20260905073100 80 0 0.0 0.0 0.00 0.00 0.00 70 1014.0
20260905071557 81 0 0.0 0.0 0.00 0.00 0.00 69 1014.2
20260905070105 81 0 0.0 0.0 0.00 0.00 0.00 68 1014.1
20260905064613 82 0 0.0 1.0 0.00 0.00 0.00 67 1014.2
20260905063058 83 0 0.0 1.0 0.00 0.00 0.00 66 1014.2
20260905061605 83 0 0.0 2.0 0.00 0.00 0.00 64 1014.2
20260905060059 82 0 0.0 1.0 0.00 0.00 0.00 66 1014.3
20260905054709 82 0 0.0 2.0 0.00 0.00 0.00 67 1014.3
20260905053104 81 0 0.0 0.0 0.00 0.00 0.00 67 1014.2
20260905051557 81 0 0.0 0.0 0.00 0.00 0.00 67 1014.3
20260905050058 82 0 0.0 1.0 0.00 0.00 0.00 66 1014.2
20260905044608 82 0 0.0 0.0 0.00 0.00 0.00 65 1014.3
20260905043105 83 0 0.0 1.0 0.00 0.00 0.00 64 1014.3
20260905041555 84 0 0.0 0.0 0.00 0.00 0.00 63 1014.3
20260905040109 85 0 0.0 0.0 0.00 0.00 0.00 62 1014.2
20260905034607 85 0 0.0 1.0 0.00 0.00 0.00 62 1014.2
20260905033058 85 0 0.0 1.0 0.00 0.00 0.00 62 1014.1
20260905031558 86 0 0.0 1.0 0.00 0.00 0.00 61 1013.9
20260905030108 86 0 0.0 2.0 0.00 0.00 0.00 60 1013.5
20260905024607 86 0 0.0 0.0 0.00 0.00 0.00 60 1013.4
20260905023059 87 0 0.0 0.0 0.00 0.00 0.00 59 1013.2
20260905021559 87 0 0.0 2.0 0.00 0.00 0.00 58 1013.0
20260905014557 90 0 0.0 1.0 0.00 0.00 0.00 55 1012.4
20260905013103 91 0 0.0 2.0 0.00 0.00 0.00 52 1012.1
20260905011558 92 86 0.0 3.0 0.00 0.00 0.00 51 1012.0
20260905010109 93 0 0.0 6.0 0.00 0.00 0.00 50 1011.8
20260905004603 95 0 0.0 4.0 0.00 0.00 0.00 48 1011.7
20260905003056 95 132 1.0 0.0 0.00 0.00 0.00 47 1011.7
20260905001555 96 136 2.0 5.0 0.00 0.00 0.00 45 1011.7
20260904234558 97 98 2.0 5.0 0.00 0.00 0.00 44 1011.6
20260904233103 98 149 2.0 7.0 0.00 0.00 0.00 44 1011.5
20260904231608 98 63 1.0 8.0 0.00 0.00 0.00 44 1011.5
20260904230108 99 109 2.0 7.0 0.00 0.00 0.00 44 1011.3
20260904224601 99 136 2.0 6.0 0.00 0.00 0.00 43 1011.4
20260904223100 100 44 2.0 6.0 0.00 0.00 0.00 43 1011.3
20260904221608 100 10 1.0 7.0 0.00 0.00 0.00 44 1011.3
20260904220107 99 132 2.0 8.0 0.00 0.00 0.00 42 1011.4
20260904214602 99 0 1.0 6.0 0.00 0.00 0.00 43 1011.4
20260904213106 99 98 2.0 4.0 0.00 0.00 0.00 44 1011.6
20260904211600 99 132 3.0 8.0 0.00 0.00 0.00 42 1011.9
20260904210104 100 132 1.0 10.0 0.00 0.00 0.00 42 1011.9
20260904204604 100 136 3.0 9.0 0.00 0.00 0.00 43 1012.1
20260904203101 99 0.0 0.0 0.00 0.00 0.00 44 1012.3
20260904201603 98 0.0 0.0 0.00 0.00 0.00 45 1012.5
20260904200115 101 0.0 0.0 0.00 0.00 0.00 42 1012.4
20260904194606 100 0.0 0.0 0.00 0.00 0.00 43 1012.6
20260904193056 100 0.0 0.0 0.00 0.00 0.00 43 1012.8
20260904191559 100 0.0 0.0 0.00 0.00 0.00 43 1013.0
20260904184611 99 0.0 0.0 0.00 0.00 0.00 45 1013.3
20260904183059 98 0.0 0.0 0.00 0.00 0.00 46 1013.5
20260904181603 97 0.0 0.0 0.00 0.00 0.00 47 1013.8
20260904180105 97 0.0 0.0 0.00 0.00 0.00 48 1013.9
20260904174600 96 0.0 0.0 0.00 0.00 0.00 48 1014.1
20260904173109 96 0.0 0.0 0.00 0.00 0.00 50 1014.3
20260904171601 95 0.0 0.0 0.00 0.00 0.00 51 1014.5
20260904170101 94 0.0 0.0 0.00 0.00 0.00 52 1014.6
20260904164600 93 0.0 0.0 0.00 0.00 0.00 53 1014.7
20260904163057 92 142 1.0 12.0 0.00 0.00 0.00 55 1014.7
20260904161604 91 126 3.0 11.0 0.00 0.00 0.00 57 1014.8
20260904160100 90 92 3.0 9.0 0.00 0.00 0.00 59 1014.7
20260904154612 88 132 3.0 8.0 0.00 0.00 0.00 63 1014.8
20260904153059 87 143 3.0 5.0 0.00 0.00 0.00 65 1014.7
20260904151559 87 100 5.0 8.0 0.00 0.00 0.00 66 1014.8
20260904150100 85 132 3.0 7.0 0.00 0.00 0.00 69 1014.7
20260904144558 83 136 3.0 7.0 0.00 0.00 0.00 71 1014.6